Zurück zum Katalog

STARLINK-34924

AktivKommunikationVLEO
NORAD 65469·PAYLOAD·🇺🇸 United States

Gestartet Sep 3, 2025 von Cape Canaveral Space Force Station

Loading…

Nächste Überflüge (nächste 24 Stunden)

TLE

AktuellSource: CelesTrak SupGP

Epoche: Sep 14, 2026, 21:11 UTC

1 65469C 25195M   26257.88312500 -.00033930  00000+0 -10025-2 0  2577
2 65469  53.1575  95.8028 0001160  84.8070 172.0838 15.34406416    19

Verfolge STARLINK-34924 in Echtzeit mit AllMySat

Download on the App Store